Home   Weather   Neukölln   Past weeks
Flag for Germany

Past Weather in Neukölln, Berlin, Germany — April 2021

Currently: 66 °F. Scattered clouds. (Weather station: Berlin-Schoenefeld, Germany). See more current weather

April 2021 Weather in Neukölln — Graph

°F

High & Low Weather Summary for April 2021

 TemperatureHumidityPressure
High68 °F (Apr 11, 2:20 pm)100% (Apr 11, 2:50 am)30.36 "Hg (Apr 11, 2:50 am)
Low25 °F (Apr 4, 6:20 am)26% (Apr 27, 3:50 pm)29.45 "Hg (Apr 5, 9:50 am)
Average45 °F66%30.03 "Hg
* Reported Apr 1 12:20 am — Apr 30 11:50 pm, Neukölln. Weather by CustomWeather, © 2022

Note: Actual official high and low records may vary slightly from our data, if they occured in-between our weather recording intervals... More about our weather records

Neukölln Weather History for April 1, 2021

Scroll right to see more
 ConditionsComfort  
Time TempWeatherWind HumidityBarometerVisibility
12:20 am
Thu, Apr 1
48 °FClear.3 mph66%30.07 "Hg10 mi
12:50 am48 °FClear.3 mph66%30.07 "Hg10 mi
1:20 am48 °FClear.3 mph66%30.04 "Hg10 mi
1:50 am48 °FClear.3 mph66%30.04 "Hg10 mi
2:20 am46 °FClear.1 mph71%30.04 "Hg10 mi
2:50 am48 °FClear.2 mph66%30.01 "Hg10 mi
3:20 am48 °FClear.3 mph71%30.01 "Hg10 mi
3:50 am46 °FClear.5 mph71%30.01 "Hg10 mi
4:20 am46 °FClear.5 mph71%30.01 "Hg10 mi
4:50 am46 °FClear.6 mph71%30.01 "Hg10 mi
5:20 am46 °FClear.5 mph71%30.01 "Hg10 mi
5:50 am46 °FClear.5 mph71%29.98 "Hg10 mi
6:20 am46 °FClear.6 mph71%29.98 "Hg10 mi
6:50 am46 °FSunny.5 mph71%29.98 "Hg10 mi
7:20 am46 °FSunny.6 mph76%29.98 "Hg10 mi
7:50 am48 °FSunny.5 mph71%30.01 "Hg10 mi
8:20 am52 °FSunny.5 mph67%29.98 "Hg10 mi
8:50 am52 °FSunny.5 mph72%30.01 "Hg10 mi
9:20 am55 °FSunny.6 mph63%30.01 "Hg10 mi
9:50 am57 °FSunny.5 mph59%30.01 "Hg10 mi
10:20 am59 °FSunny.6 mph55%30.01 "Hg10 mi
10:50 am63 °FSunny.2 mph45%30.01 "Hg10 mi
11:20 am63 °FSunny.7 mph42%30.01 "Hg10 mi
11:50 am61 °FLight rain. Scattered clouds.5 mph48%30.01 "HgN/A
12:20 pm63 °FLight rain. Scattered clouds.6 mph42%29.98 "HgN/A
12:50 pm63 °FPassing clouds.8 mph45%29.98 "HgN/A
1:20 pm63 °FSunny.9 mph42%29.98 "Hg10 mi
1:50 pm61 °FLight rain. Scattered clouds.5 mph48%29.98 "HgN/A
2:20 pm59 °FLight rain. Scattered clouds.2 mph68%29.98 "HgN/A
2:50 pm59 °FLight rain. Scattered clouds.8 mph63%29.98 "HgN/A
3:20 pm61 °FSunny.13 mph55%29.98 "Hg10 mi
3:50 pm63 °FLight rain. Scattered clouds.9 mph52%29.98 "HgN/A
4:20 pm61 °FLight rain. Scattered clouds.16 mph48%29.98 "HgN/A
4:50 pm59 °FPassing clouds.16 mph59%29.98 "HgN/A
5:20 pm59 °FSunny.16 mph55%30.01 "Hg10 mi
5:50 pm57 °FScattered clouds.16 mph63%30.01 "HgN/A
6:50 pm52 °FPartly sunny.18 mph77%30.04 "HgN/A
7:20 pm50 °FPartly sunny.17 mph82%30.04 "HgN/A
7:50 pm48 °FPassing clouds.14 mph82%30.07 "HgN/A
8:20 pm48 °FPassing clouds.14 mph82%30.07 "HgN/A
8:50 pm48 °FPassing clouds.18 mph82%30.07 "HgN/A
9:20 pm48 °FPassing clouds.14 mph82%30.09 "HgN/A
9:50 pm46 °FPassing clouds.17 mph87%30.09 "HgN/A
10:20 pm45 °FPassing clouds.15 mph87%30.09 "HgN/A
11:20 pm43 °FPassing clouds.15 mph81%30.12 "HgN/A
11:50 pm43 °FPassing clouds.13 mph81%30.12 "HgN/A
Weather by CustomWeather, © 2022

See weather overview